STARLINK-1848 (46740 NORAD) Tracking and Keplerian Element Data

This shows tracking and keplerian element data for the satellite.

Feedback or suggestion? Click here.




ElementValue
Catalog46740
NameSTARLINK-1848
Epoch Orbit1374
Epoch Day17.91667824
Epoch Year2021
RAAN111.8417
Inclination53.0458
Eccentricity0.0001008
Argument of Perigee39.3508
Mean Anonmoly75.1374
Mean Motion15.06404064
Decay Rate-0.00034094
L11 46740U 20074B 21017.91667824 -.00034094 00000-0 -22807-2 0 9991
L22 46740 53.0458 111.8417 0001008 39.3508 75.1374 15.06404064 13740

Live tracking and technical data element details for STARLINK-1848 (NORAD 46740). STARLINK-1848 can be tracked NOW for your location showing map with azimuth and elevation plus other details from your city location.

Track the satellite on the map from your city or location and see movement details for azimuth, elevation, latitude, longitude, range, height, and movement on the map or in text.







IsCatalogInMostPopularTable: catalog: 46740, numindb: 25
Update: records affected: 1



GetName: 46740 STARLINK-1848

Hit Count: updated at: Mon, 18 Jan 2021 16:21:28 GMT